| time (UTC) | temp C | wind direction | speed KPH | gust KPH | rain 1hr cm | rain 24hr cm | rain mn cm | humidity % | barometer mb |
| 20260508082903 | 0 | 164 | 0.0 | 1.6 | 0.00 | 0.00 | 0.00 | 98 | 1004.4 |
| 20260508082401 | 0 | 170 | 1.6 | 1.6 | 0.00 | 0.00 | 0.00 | 98 | 1004.7 |
| 20260508081858 | 0 | 153 | 1.6 | 3.2 | 0.00 | 0.00 | 0.00 | 98 | 1004.6 |
| 20260508081355 | 0 | 162 | 0.0 | 0.0 | 0.00 | 0.00 | 0.00 | 98 | 1004.8 |
| 20260508080851 | 0 | 168 | 0.0 | 1.6 | 0.00 | 0.00 | 0.00 | 97 | 1004.8 |
| 20260508080350 | 0 | 238 | 1.6 | 1.6 | 0.00 | 0.00 | 0.00 | 97 | 1004.6 |
| 20260508075846 | 0 | 161 | 0.0 | 1.6 | 0.00 | 0.00 | 0.00 | 97 | 1004.6 |
| 20260508075343 | 0 | 242 | 1.6 | 4.8 | 0.00 | 0.00 | 0.00 | 98 | 1004.7 |
| 20260508074841 | 0 | 238 | 3.2 | 3.2 | 0.00 | 0.00 | 0.00 | 98 | 1004.6 |
| 20260508074337 | 0 | 190 | 0.0 | 1.6 | 0.00 | 0.00 | 0.00 | 97 | 1004.6 |
| 20260508073834 | 0 | 161 | 1.6 | 1.6 | 0.00 | 0.00 | 0.00 | 97 | 1004.4 |
| 20260508073332 | 0 | 162 | 1.6 | 3.2 | 0.00 | 0.00 | 0.00 | 97 | 1004.6 |
| 20260508072829 | 0 | 153 | 1.6 | 1.6 | 0.00 | 0.00 | 0.00 | 97 | 1004.6 |
| 20260508072325 | 0 | 146 | 1.6 | 1.6 | 0.00 | 0.00 | 0.00 | 97 | 1004.4 |
| 20260508071823 | 1 | 192 | 0.0 | 0.0 | 0.00 | 0.00 | 0.00 | 97 | 1004.4 |
| 20260508071321 | 1 | 252 | 1.6 | 1.6 | 0.00 | 0.00 | 0.00 | 97 | 1004.3 |
| 20260508070818 | 1 | 173 | 0.0 | 1.6 | 0.00 | 0.00 | 0.00 | 97 | 1004.6 |
| 20260508070316 | 1 | 171 | 0.0 | 3.2 | 0.00 | 0.00 | 0.00 | 96 | 1004.4 |
| 20260508065813 | 1 | 196 | 0.0 | 1.6 | 0.00 | 0.00 | 0.00 | 96 | 1004.3 |
| 20260508065311 | 1 | 165 | 1.6 | 3.2 | 0.00 | 0.00 | 0.00 | 96 | 1004.3 |
| 20260508064809 | 1 | 256 | 1.6 | 3.2 | 0.00 | 0.00 | 0.00 | 96 | 1004.4 |
| 20260508064307 | 1 | 177 | 0.0 | 0.0 | 0.00 | 0.00 | 0.00 | 96 | 1004.6 |
| 20260508063804 | 1 | 223 | 0.0 | 0.0 | 0.00 | 0.00 | 0.00 | 96 | 1004.6 |
| 20260508063302 | 1 | 244 | 1.6 | 3.2 | 0.00 | 0.00 | 0.00 | 96 | 1004.7 |
| 20260508062759 | 1 | 155 | 0.0 | 0.0 | 0.00 | 0.00 | 0.00 | 96 | 1004.7 |
| 20260508062256 | 1 | 241 | 1.6 | 3.2 | 0.00 | 0.00 | 0.00 | 96 | 1004.7 |
| 20260508061753 | 1 | 172 | 0.0 | 0.0 | 0.00 | 0.00 | 0.00 | 96 | 1004.7 |
| 20260508061250 | 1 | 161 | 0.0 | 1.6 | 0.00 | 0.00 | 0.00 | 96 | 1004.8 |
| 20260508060747 | 1 | 209 | 0.0 | 1.6 | 0.00 | 0.00 | 0.00 | 96 | 1004.4 |
| 20260508060245 | 1 | 205 | 0.0 | 0.0 | 0.00 | 0.00 | 0.00 | 96 | 1004.7 |
| 20260508055740 | 2 | 186 | 0.0 | 0.0 | 0.00 | 0.00 | 0.00 | 96 | 1004.4 |
| 20260508055237 | 2 | 186 | 1.6 | 3.2 | 0.00 | 0.00 | 0.00 | 96 | 1004.3 |
| 20260508054733 | 1 | 208 | 0.0 | 1.6 | 0.00 | 0.00 | 0.00 | 96 | 1004.3 |
| 20260508054232 | 2 | 252 | 0.0 | 1.6 | 0.00 | 0.00 | 0.00 | 96 | 1004.4 |
| 20260508053728 | 2 | 173 | 0.0 | 1.6 | 0.00 | 0.00 | 0.00 | 95 | 1004.2 |
| 20260508053225 | 2 | 157 | 1.6 | 3.2 | 0.00 | 0.00 | 0.00 | 95 | 1004.2 |
| 20260508052722 | 2 | 260 | 1.6 | 1.6 | 0.00 | 0.00 | 0.00 | 95 | 1004.1 |
| 20260508052219 | 2 | 188 | 0.0 | 1.6 | 0.00 | 0.00 | 0.00 | 96 | 1004.0 |
| 20260508051716 | 2 | 193 | 0.0 | 1.6 | 0.00 | 0.00 | 0.00 | 96 | 1004.1 |
| 20260508051211 | 2 | 220 | 1.6 | 3.2 | 0.00 | 0.00 | 0.00 | 96 | 1004.0 |
| 20260508050708 | 2 | 176 | 0.0 | 1.6 | 0.00 | 0.00 | 0.00 | 96 | 1004.0 |
| 20260508050206 | 2 | 192 | 0.0 | 1.6 | 0.00 | 0.00 | 0.00 | 96 | 1003.9 |
| 20260508045700 | 2 | 165 | 1.6 | 1.6 | 0.00 | 0.00 | 0.00 | 95 | 1003.9 |
| 20260508045159 | 2 | 234 | 0.0 | 1.6 | 0.00 | 0.00 | 0.00 | 95 | 1003.8 |
| 20260508044656 | 2 | 181 | 0.0 | 1.6 | 0.00 | 0.00 | 0.00 | 95 | 1003.8 |
| 20260508044152 | 3 | 222 | 0.0 | 0.0 | 0.00 | 0.00 | 0.00 | 95 | 1003.8 |
| 20260508043648 | 3 | 177 | 0.0 | 0.0 | 0.00 | 0.00 | 0.00 | 94 | 1004.0 |
| 20260508043146 | 3 | 163 | 1.6 | 3.2 | 0.00 | 0.00 | 0.00 | 94 | 1003.8 |
| 20260508042643 | 3 | 185 | 0.0 | 0.0 | 0.00 | 0.00 | 0.00 | 94 | 1003.9 |
| 20260508042140 | 3 | 242 | 1.6 | 1.6 | 0.00 | 0.00 | 0.00 | 94 | 1003.8 |
| 20260508041636 | 3 | 233 | 0.0 | 1.6 | 0.00 | 0.00 | 0.00 | 94 | 1003.7 |
| 20260508041133 | 3 | 282 | 1.6 | 3.2 | 0.00 | 0.00 | 0.00 | 94 | 1003.8 |
| 20260508040629 | 3 | 173 | 3.2 | 3.2 | 0.00 | 0.00 | 0.00 | 94 | 1003.6 |
| 20260508040127 | 3 | 170 | 0.0 | 1.6 | 0.00 | 0.03 | 0.03 | 94 | 1003.6 |
| 20260508035624 | 3 | 178 | 1.6 | 3.2 | 0.00 | 0.03 | 0.03 | 94 | 1003.6 |
| 20260508035122 | 3 | 231 | 1.6 | 3.2 | 0.00 | 0.03 | 0.03 | 94 | 1003.6 |
| 20260508034618 | 3 | 216 | 0.0 | 3.2 | 0.00 | 0.03 | 0.03 | 94 | 1003.5 |
| 20260508034115 | 3 | 250 | 3.2 | 3.2 | 0.00 | 0.03 | 0.03 | 93 | 1003.6 |
| 20260508033613 | 3 | 182 | 1.6 | 1.6 | 0.00 | 0.03 | 0.03 | 93 | 1003.5 |
| 20260508033111 | 3 | 249 | 3.2 | 3.2 | 0.00 | 0.03 | 0.03 | 93 | 1003.3 |
| 20260508032607 | 3 | 234 | 1.6 | 3.2 | 0.00 | 0.03 | 0.03 | 93 | 1003.2 |
| 20260508032105 | 3 | 200 | 0.0 | 1.6 | 0.00 | 0.03 | 0.03 | 92 | 1003.3 |
| 20260508031602 | 4 | 158 | 3.2 | 3.2 | 0.00 | 0.03 | 0.03 | 92 | 1003.3 |
| 20260508031057 | 4 | 281 | 3.2 | 3.2 | 0.00 | 0.03 | 0.03 | 92 | 1003.3 |
| 20260508030554 | 4 | 300 | 1.6 | 3.2 | 0.00 | 0.03 | 0.03 | 92 | 1003.2 |
| 20260508030052 | 4 | 171 | 0.0 | 1.6 | 0.00 | 0.03 | 0.03 | 92 | 1003.1 |
| 20260508025548 | 4 | 178 | 0.0 | 1.6 | 0.00 | 0.03 | 0.03 | 92 | 1003.1 |
| 20260508025045 | 4 | 237 | 1.6 | 1.6 | 0.00 | 0.03 | 0.03 | 91 | 1002.9 |
| 20260508024541 | 5 | 261 | 1.6 | 1.6 | 0.00 | 0.03 | 0.03 | 91 | 1003.0 |
| 20260508024039 | 5 | 181 | 1.6 | 3.2 | 0.00 | 0.03 | 0.03 | 91 | 1002.9 |
| 20260508023535 | 5 | 167 | 1.6 | 3.2 | 0.00 | 0.03 | 0.03 | 90 | 1002.9 |
| 20260508023032 | 5 | 234 | 1.6 | 3.2 | 0.00 | 0.03 | 0.03 | 90 | 1003.0 |
| 20260508022528 | 5 | 286 | 0.0 | 4.8 | 0.00 | 0.03 | 0.03 | 90 | 1002.6 |
| 20260508022025 | 5 | 178 | 1.6 | 1.6 | 0.00 | 0.03 | 0.03 | 89 | 1002.6 |
| 20260508021521 | 5 | 213 | 0.0 | 1.6 | 0.00 | 0.03 | 0.03 | 89 | 1002.5 |
| 20260508021017 | 6 | 257 | 1.6 | 3.2 | 0.00 | 0.03 | 0.03 | 88 | 1002.5 |
| 20260508020515 | 6 | 251 | 1.6 | 3.2 | 0.00 | 0.03 | 0.03 | 88 | 1002.3 |
| 20260508020012 | 6 | 299 | 3.2 | 3.2 | 0.00 | 0.03 | 0.03 | 88 | 1002.3 |
| 20260508015510 | 6 | 240 | 0.0 | 1.6 | 0.00 | 0.03 | 0.03 | 87 | 1002.3 |
| 20260508015006 | 6 | 201 | 1.6 | 3.2 | 0.00 | 0.03 | 0.03 | 87 | 1002.4 |
| 20260508014503 | 6 | 251 | 4.8 | 4.8 | 0.00 | 0.03 | 0.03 | 87 | 1002.3 |
| 20260508013959 | 6 | 202 | 0.0 | 3.2 | 0.00 | 0.03 | 0.03 | 87 | 1002.2 |
| 20260508013455 | 6 | 231 | 1.6 | 3.2 | 0.00 | 0.03 | 0.03 | 87 | 1002.0 |
| 20260508012953 | 6 | 184 | 0.0 | 0.0 | 0.00 | 0.03 | 0.03 | 88 | 1002.1 |
| 20260508012449 | 6 | 202 | 0.0 | 0.0 | 0.00 | 0.03 | 0.03 | 87 | 1002.0 |
| 20260508011947 | 7 | 54 | 1.6 | 3.2 | 0.00 | 0.03 | 0.03 | 87 | 1001.7 |
| 20260508011445 | 7 | 304 | 0.0 | 0.0 | 0.00 | 0.03 | 0.03 | 86 | 1001.8 |
| 20260508010942 | 7 | 188 | 0.0 | 0.0 | 0.00 | 0.03 | 0.03 | 85 | 1001.9 |
| 20260508010439 | 7 | 166 | 0.0 | 0.0 | 0.00 | 0.03 | 0.03 | 85 | 1001.8 |
| 20260508005936 | 8 | 158 | 0.0 | 1.6 | 0.00 | 0.03 | 0.03 | 84 | 1001.6 |
| 20260508005433 | 8 | 209 | 1.6 | 1.6 | 0.00 | 0.03 | 0.03 | 83 | 1001.6 |
| 20260508004929 | 8 | 173 | 0.0 | 3.2 | 0.00 | 0.03 | 0.03 | 82 | 1001.6 |
| 20260508004425 | 8 | 240 | 1.6 | 1.6 | 0.00 | 0.03 | 0.03 | 76 | 1001.5 |
| 20260508003922 | 9 | 328 | 3.2 | 4.8 | 0.00 | 0.03 | 0.03 | 79 | 1001.3 |
| 20260508003419 | 10 | 249 | 1.6 | 3.2 | 0.00 | 0.03 | 0.03 | 78 | 1001.4 |
| 20260508002916 | 10 | 250 | 4.8 | 6.4 | 0.00 | 0.03 | 0.03 | 72 | 1001.2 |
| 20260508002413 | 11 | 182 | 3.2 | 4.8 | 0.00 | 0.03 | 0.03 | 73 | 1001.3 |
| 20260508001909 | 11 | 129 | 6.4 | 11.3 | 0.00 | 0.03 | 0.03 | 68 | 1001.3 |
| 20260508001405 | 10 | 262 | 4.8 | 6.4 | 0.00 | 0.03 | 0.03 | 68 | 1001.3 |
| 20260508000902 | 11 | 240 | 0.0 | 9.7 | 0.00 | 0.03 | 0.03 | 77 | 1001.2 |
| 20260508000358 | 10 | 273 | 6.4 | 12.9 | 0.00 | 0.03 | 0.03 | 75 | 1000.9 |
| 20260507235855 | 11 | 227 | 1.6 | 4.8 | 0.00 | 0.03 | 0.03 | 66 | 1000.8 |
| 20260507235352 | 11 | 238 | 3.2 | 6.4 | 0.00 | 0.03 | 0.03 | 72 | 1000.8 |
| 20260507234849 | 12 | 131 | 3.2 | 4.8 | 0.00 | 0.03 | 0.03 | 64 | 1000.8 |
| 20260507234346 | 11 | 242 | 6.4 | 14.5 | 0.00 | 0.03 | 0.03 | 64 | 1000.7 |
| 20260507233842 | 11 | 266 | 3.2 | 12.9 | 0.00 | 0.03 | 0.03 | 64 | 1000.6 |
| 20260507233339 | 11 | 249 | 4.8 | 9.7 | 0.00 | 0.03 | 0.03 | 67 | 1000.6 |
| 20260507232838 | 11 | 291 | 1.6 | 9.7 | 0.00 | 0.03 | 0.03 | 71 | 1000.5 |
| 20260507232334 | 12 | 223 | 1.6 | 6.4 | 0.00 | 0.03 | 0.03 | 65 | 1000.4 |
| 20260507231832 | 11 | 252 | 8.0 | 11.3 | 0.00 | 0.03 | 0.03 | 68 | 1000.2 |
| 20260507231328 | 11 | 265 | 3.2 | 4.8 | 0.00 | 0.03 | 0.03 | 69 | 1000.4 |
| 20260507230824 | 12 | 75 | 0.0 | 1.6 | 0.00 | 0.03 | 0.03 | 63 | 1000.3 |
| 20260507230322 | 12 | 145 | 0.0 | 1.6 | 0.00 | 0.03 | 0.03 | 62 | 1000.3 |
| 20260507225821 | 12 | 156 | 4.8 | 14.5 | 0.00 | 0.03 | 0.03 | 61 | 1000.3 |
| 20260507225318 | 12 | 221 | 1.6 | 3.2 | 0.00 | 0.03 | 0.03 | 64 | 1000.1 |
| 20260507224814 | 12 | 311 | 1.6 | 3.2 | 0.00 | 0.03 | 0.03 | 62 | 1000.2 |
| 20260507224311 | 13 | 133 | 1.6 | 1.6 | 0.00 | 0.03 | 0.03 | 65 | 1000.2 |
| 20260507223807 | 13 | 208 | 0.0 | 6.4 | 0.00 | 0.03 | 0.03 | 62 | 1000.1 |
| 20260507223303 | 13 | 96 | 0.0 | 3.2 | 0.00 | 0.03 | 0.03 | 60 | 1000.1 |
| 20260507222801 | 13 | 177 | 0.0 | 11.3 | 0.00 | 0.03 | 0.03 | 59 | 1000.2 |
| 20260507222256 | 14 | 203 | 3.2 | 11.3 | 0.00 | 0.03 | 0.03 | 58 | 999.9 |
| 20260507221754 | 14 | 288 | 3.2 | 9.7 | 0.00 | 0.03 | 0.03 | 58 | 999.8 |
| 20260507221250 | 14 | 79 | 3.2 | 6.4 | 0.00 | 0.03 | 0.03 | 60 | 1000.1 |
| 20260507220746 | 14 | 277 | 3.2 | 12.9 | 0.00 | 0.03 | 0.03 | 59 | 999.9 |
| 20260507220245 | 15 | 233 | 4.8 | 11.3 | 0.00 | 0.03 | 0.03 | 60 | 999.9 |
| 20260507215740 | 15 | 133 | 1.6 | 6.4 | 0.00 | 0.03 | 0.03 | 59 | 1000.0 |
| 20260507215238 | 15 | 256 | 6.4 | 6.4 | 0.00 | 0.03 | 0.03 | 56 | 999.8 |
| 20260507214735 | 13 | 134 | 14.5 | 17.7 | 0.00 | 0.03 | 0.03 | 59 | 999.8 |
| 20260507214233 | 13 | 134 | 3.2 | 6.4 | 0.00 | 0.03 | 0.03 | 61 | 999.8 |
| 20260507213727 | 14 | 133 | 4.8 | 4.8 | 0.00 | 0.03 | 0.03 | 61 | 999.8 |
| 20260507213225 | 13 | 129 | 3.2 | 6.4 | 0.00 | 0.03 | 0.03 | 64 | 999.7 |
| 20260507212721 | 13 | 185 | 6.4 | 11.3 | 0.00 | 0.03 | 0.03 | 63 | 999.5 |
| 20260507212218 | 14 | 184 | 6.4 | 20.9 | 0.00 | 0.03 | 0.03 | 61 | 999.5 |
| 20260507211715 | 14 | 135 | 9.7 | 17.7 | 0.00 | 0.03 | 0.03 | 60 | 999.4 |
| 20260507211210 | 14 | 143 | 9.7 | 12.9 | 0.00 | 0.03 | 0.03 | 61 | 999.6 |
| 20260507210708 | 14 | 294 | 0.0 | 12.9 | 0.00 | 0.03 | 0.03 | 60 | 999.4 |
| 20260507210205 | 14 | 142 | 3.2 | 6.4 | 0.00 | 0.03 | 0.03 | 63 | 999.6 |
| 20260507205701 | 15 | 163 | 6.4 | 9.7 | 0.00 | 0.03 | 0.03 | 61 | 999.5 |
| 20260507205158 | 13 | 228 | 6.4 | 9.7 | 0.00 | 0.03 | 0.03 | 66 | 999.5 |
| 20260507204654 | 14 | 153 | 8.0 | 12.9 | 0.00 | 0.03 | 0.03 | 64 | 999.5 |
| 20260507204152 | 13 | 137 | 6.4 | 16.1 | 0.00 | 0.03 | 0.03 | 64 | 999.6 |
| 20260507203650 | 15 | 151 | 16.1 | 22.5 | 0.00 | 0.03 | 0.03 | 60 | 999.6 |
| 20260507203147 | 15 | 37 | 8.0 | 11.3 | 0.00 | 0.03 | 0.03 | 61 | 999.7 |
| 20260507202642 | 15 | 177 | 8.0 | 12.9 | 0.00 | 0.03 | 0.03 | 64 | 999.5 |
| 20260507202139 | 14 | 152 | 6.4 | 6.4 | 0.00 | 0.03 | 0.03 | 64 | 999.4 |
| 20260507201634 | 14 | 156 | 3.2 | 6.4 | 0.00 | 0.03 | 0.03 | 67 | 999.4 |
| 20260507201131 | 15 | 277 | 8.0 | 11.3 | 0.00 | 0.03 | 0.03 | 63 | 999.0 |
| 20260507200627 | 15 | 159 | 11.3 | 16.1 | 0.00 | 0.03 | 0.03 | 66 | 999.2 |
| 20260507200123 | 15 | 227 | 9.7 | 14.5 | 0.00 | 0.03 | 0.03 | 64 | 999.0 |
| 20260507195620 | 14 | 213 | 8.0 | 11.3 | 0.00 | 0.03 | 0.03 | 66 | 999.2 |
| 20260507195117 | 13 | 189 | 4.8 | 11.3 | 0.00 | 0.03 | 0.03 | 67 | 999.5 |
| 20260507194614 | 14 | 121 | 4.8 | 9.7 | 0.00 | 0.03 | 0.03 | 66 | 999.5 |
| 20260507194109 | 15 | 275 | 1.6 | 9.7 | 0.00 | 0.03 | 0.03 | 68 | 999.6 |
| 20260507193607 | 15 | 173 | 3.2 | 14.5 | 0.00 | 0.03 | 0.03 | 68 | 999.6 |
| 20260507193103 | 15 | 249 | 6.4 | 14.5 | 0.00 | 0.03 | 0.03 | 66 | 999.7 |
| 20260507192600 | 15 | 137 | 8.0 | 12.9 | 0.00 | 0.03 | 0.03 | 67 | 999.8 |
| 20260507192057 | 15 | 182 | 6.4 | 12.9 | 0.00 | 0.03 | 0.03 | 64 | 1000.0 |
| 20260507191552 | 14 | 279 | 6.4 | 17.7 | 0.00 | 0.03 | 0.03 | 72 | 999.9 |
| 20260507191049 | 15 | 135 | 6.4 | 9.7 | 0.00 | 0.03 | 0.03 | 66 | 999.8 |
| 20260507190547 | 15 | 150 | 4.8 | 11.3 | 0.00 | 0.03 | 0.03 | 67 | 999.9 |
| 20260507190045 | 14 | 253 | 4.8 | 12.9 | 0.00 | 0.03 | 0.03 | 68 | 1000.0 |
| 20260507185543 | 14 | 236 | 4.8 | 11.3 | 0.00 | 0.03 | 0.03 | 69 | 1000.1 |
| 20260507185039 | 15 | 136 | 9.7 | 14.5 | 0.00 | 0.03 | 0.03 | 68 | 1000.2 |
| 20260507184538 | 15 | 152 | 9.7 | 14.5 | 0.00 | 0.03 | 0.03 | 67 | 999.9 |
| 20260507184035 | 15 | 147 | 3.2 | 4.8 | 0.00 | 0.03 | 0.03 | 66 | 1000.0 |
| 20260507183531 | 15 | 303 | 1.6 | 9.7 | 0.00 | 0.03 | 0.03 | 68 | 1000.2 |
| 20260507183028 | 15 | 154 | 9.7 | 12.9 | 0.00 | 0.03 | 0.03 | 68 | 1000.2 |
| 20260507182525 | 14 | 131 | 0.0 | 9.7 | 0.00 | 0.03 | 0.03 | 70 | 999.9 |
| 20260507182021 | 14 | 144 | 4.8 | 9.7 | 0.00 | 0.03 | 0.03 | 68 | 1000.2 |
| 20260507181518 | 14 | 195 | 1.6 | 6.4 | 0.00 | 0.03 | 0.03 | 71 | 999.9 |
| 20260507181014 | 14 | 159 | 8.0 | 11.3 | 0.00 | 0.03 | 0.03 | 71 | 999.9 |
| 20260507180510 | 14 | 126 | 6.4 | 11.3 | 0.00 | 0.03 | 0.03 | 69 | 1000.0 |
| 20260507180007 | 13 | 104 | 0.0 | 3.2 | 0.00 | 0.03 | 0.03 | 77 | 1000.1 |
| 20260507175504 | 13 | 235 | 4.8 | 11.3 | 0.00 | 0.03 | 0.03 | 74 | 1000.1 |
| 20260507175001 | 13 | 229 | 4.8 | 12.9 | 0.00 | 0.03 | 0.03 | 74 | 1000.1 |
| 20260507174458 | 13 | 177 | 3.2 | 4.8 | 0.00 | 0.03 | 0.03 | 74 | 1000.1 |
| 20260507173956 | 13 | 240 | 1.6 | 3.2 | 0.00 | 0.03 | 0.03 | 76 | 1000.2 |
| 20260507173453 | 12 | 176 | 1.6 | 11.3 | 0.00 | 0.03 | 0.03 | 75 | 1000.2 |
| 20260507172949 | 12 | 273 | 3.2 | 6.4 | 0.00 | 0.03 | 0.03 | 76 | 1000.3 |
| 20260507172446 | 12 | 76 | 4.8 | 6.4 | 0.00 | 0.03 | 0.03 | 77 | 1000.5 |
| 20260507171942 | 12 | 203 | 9.7 | 12.9 | 0.00 | 0.03 | 0.03 | 80 | 1000.5 |
| 20260507171438 | 12 | 138 | 4.8 | 6.4 | 0.00 | 0.03 | 0.03 | 78 | 1000.5 |
| 20260507170936 | 12 | 251 | 3.2 | 9.7 | 0.00 | 0.03 | 0.03 | 79 | 1000.5 |
| 20260507170432 | 12 | 250 | 4.8 | 6.4 | 0.00 | 0.03 | 0.03 | 78 | 1000.5 |
| 20260507165928 | 11 | 231 | 3.2 | 3.2 | 0.00 | 0.03 | 0.03 | 82 | 1000.7 |
| 20260507165425 | 11 | 201 | 3.2 | 4.8 | 0.00 | 0.03 | 0.03 | 83 | 1000.8 |
| 20260507164920 | 11 | 261 | 0.0 | 3.2 | 0.00 | 0.03 | 0.03 | 81 | 1000.9 |
| 20260507164418 | 11 | 164 | 1.6 | 3.2 | 0.00 | 0.03 | 0.03 | 84 | 1000.9 |
| 20260507163915 | 11 | 206 | 3.2 | 4.8 | 0.00 | 0.03 | 0.03 | 83 | 1000.9 |
| 20260507163412 | 11 | 148 | 4.8 | 9.7 | 0.00 | 0.03 | 0.03 | 83 | 1001.2 |
| 20260507162909 | 11 | 139 | 4.8 | 6.4 | 0.00 | 0.03 | 0.03 | 84 | 1001.1 |
| 20260507162404 | 11 | 236 | 0.0 | 3.2 | 0.00 | 0.03 | 0.03 | 85 | 1001.2 |
| 20260507161902 | 11 | 308 | 4.8 | 4.8 | 0.00 | 0.03 | 0.03 | 86 | 1001.1 |
| 20260507161358 | 11 | 311 | 3.2 | 4.8 | 0.00 | 0.03 | 0.03 | 87 | 1001.2 |
| 20260507160855 | 11 | 137 | 3.2 | 4.8 | 0.00 | 0.03 | 0.03 | 86 | 1001.1 |
| 20260507160350 | 11 | 325 | 3.2 | 3.2 | 0.00 | 0.03 | 0.03 | 86 | 1001.2 |
| 20260507155847 | 11 | 257 | 1.6 | 4.8 | 0.00 | 0.03 | 0.03 | 87 | 1001.2 |
| 20260507155342 | 11 | 161 | 0.0 | 3.2 | 0.00 | 0.03 | 0.03 | 86 | 1001.3 |
| 20260507154839 | 10 | 219 | 3.2 | 6.4 | 0.00 | 0.03 | 0.03 | 88 | 1001.3 |
| 20260507154337 | 10 | 152 | 1.6 | 1.6 | 0.00 | 0.03 | 0.03 | 89 | 1001.4 |
| 20260507153834 | 10 | 261 | 4.8 | 6.4 | 0.00 | 0.03 | 0.03 | 91 | 1001.5 |
| 20260507153330 | 10 | 147 | 1.6 | 3.2 | 0.00 | 0.03 | 0.03 | 91 | 1001.5 |
| 20260507152827 | 10 | 258 | 3.2 | 3.2 | 0.00 | 0.03 | 0.03 | 90 | 1001.7 |
| 20260507152323 | 10 | 165 | 0.0 | 6.4 | 0.00 | 0.03 | 0.03 | 90 | 1001.4 |
| 20260507151819 | 10 | 166 | 0.0 | 1.6 | 0.00 | 0.03 | 0.03 | 89 | 1001.7 |
| 20260507151315 | 10 | 166 | 4.8 | 4.8 | 0.00 | 0.03 | 0.03 | 89 | 1001.6 |
| 20260507150812 | 10 | 128 | 1.6 | 3.2 | 0.00 | 0.03 | 0.03 | 89 | 1001.4 |
| 20260507150309 | 10 | 222 | 3.2 | 4.8 | 0.00 | 0.03 | 0.03 | 87 | 1001.4 |
| 20260507145805 | 10 | 176 | 1.6 | 1.6 | 0.00 | 0.03 | 0.03 | 89 | 1001.5 |
| 20260507145306 | 10 | 198 | 1.6 | 3.2 | 0.00 | 0.03 | 0.03 | 90 | 1001.5 |
| 20260507144759 | 10 | 181 | 0.0 | 3.2 | 0.00 | 0.03 | 0.03 | 89 | 1001.6 |
| 20260507144256 | 10 | 307 | 3.2 | 3.2 | 0.00 | 0.03 | 0.03 | 90 | 1001.6 |
| 20260507143752 | 10 | 151 | 1.6 | 3.2 | 0.00 | 0.03 | 0.03 | 92 | 1001.6 |
| 20260507143250 | 10 | 123 | 0.0 | 1.6 | 0.00 | 0.03 | 0.03 | 91 | 1001.5 |
| 20260507142746 | 10 | 256 | 3.2 | 3.2 | 0.00 | 0.03 | 0.03 | 91 | 1001.4 |
| 20260507142243 | 9 | 151 | 0.0 | 1.6 | 0.00 | 0.03 | 0.03 | 91 | 1001.7 |
| 20260507141739 | 9 | 165 | 3.2 | 3.2 | 0.00 | 0.03 | 0.03 | 92 | 1001.8 |
| 20260507141236 | 9 | 156 | 0.0 | 1.6 | 0.00 | 0.03 | 0.03 | 94 | 1001.7 |
| 20260507140732 | 9 | 130 | 0.0 | 0.0 | 0.00 | 0.03 | 0.03 | 94 | 1001.7 |
| 20260507140230 | 9 | 246 | 1.6 | 1.6 | 0.00 | 0.03 | 0.03 | 95 | 1001.7 |
| 20260507135727 | 9 | 293 | 0.0 | 1.6 | 0.00 | 0.03 | 0.03 | 95 | 1001.8 |
| 20260507135224 | 8 | 254 | 0.0 | 3.2 | 0.00 | 0.03 | 0.03 | 94 | 1001.9 |
| 20260507134720 | 9 | 166 | 1.6 | 3.2 | 0.00 | 0.03 | 0.03 | 95 | 1001.9 |
| 20260507134216 | 9 | 233 | 0.0 | 1.6 | 0.18 | 0.03 | 0.03 | 96 | 1002.2 |
| 20260507133713 | 9 | 226 | 1.6 | 1.6 | 0.18 | 0.03 | 0.03 | 96 | 1002.4 |
| 20260507133210 | 9 | 263 | 1.6 | 4.8 | 0.00 | 0.00 | 0.00 | 96 | 1002.2 |
| 20260507132707 | 9 | 145 | 1.6 | 4.8 | 0.00 | 0.00 | 0.00 | 95 | 1002.2 |
| 20260507132203 | 9 | 72 | 0.0 | 3.2 | 0.00 | 0.00 | 0.00 | 95 | 1001.9 |
| 20260507131700 | 9 | 66 | 1.6 | 3.2 | 0.00 | 0.00 | 0.00 | 95 | 1002.2 |
| 20260507131158 | 9 | 176 | 1.6 | 4.8 | 0.00 | 0.00 | 0.00 | 95 | 1002.3 |
| 20260507130654 | 9 | 155 | 0.0 | 4.8 | 0.00 | 0.00 | 0.00 | 94 | 1002.1 |
| 20260507130152 | 9 | 124 | 1.6 | 4.8 | 0.00 | 0.00 | 0.00 | 94 | 1002.0 |
| 20260507125651 | 9 | 122 | 0.0 | 4.8 | 0.00 | 0.00 | 0.00 | 94 | 1002.0 |
| 20260507125148 | 10 | 156 | 1.6 | 3.2 | 0.00 | 0.00 | 0.00 | 95 | 1001.9 |
| 20260507124644 | 10 | 164 | 0.0 | 4.8 | 0.00 | 0.00 | 0.00 | 95 | 1001.9 |
| 20260507124142 | 10 | 213 | 3.2 | 3.2 | 0.00 | 0.00 | 0.00 | 94 | 1001.8 |
| 20260507123640 | 10 | 244 | 3.2 | 3.2 | 0.00 | 0.00 | 0.00 | 95 | 1001.8 |
| 20260507123137 | 10 | 161 | 3.2 | 4.8 | 0.00 | 0.00 | 0.00 | 95 | 1001.9 |
| 20260507122632 | 10 | 138 | 6.4 | 11.3 | 0.00 | 0.00 | 0.00 | 95 | 1002.0 |
| 20260507122127 | 10 | 168 | 3.2 | 4.8 | 0.00 | 0.00 | 0.00 | 95 | 1001.7 |
| 20260507121623 | 10 | 271 | 1.6 | 3.2 | 0.00 | 0.00 | 0.00 | 95 | 1001.7 |
| 20260507121114 | 10 | 223 | 3.2 | 4.8 | 0.00 | 0.00 | 0.00 | 95 | 1001.7 |
| 20260507120610 | 10 | 234 | 1.6 | 3.2 | 0.00 | 0.00 | 0.00 | 95 | 1001.8 |
| 20260507120107 | 10 | 252 | 3.2 | 4.8 | 0.00 | 0.00 | 0.00 | 94 | 1001.8 |
| 20260507115603 | 10 | 239 | 0.0 | 1.6 | 0.00 | 0.00 | 0.00 | 94 | 1001.7 |
| 20260507115059 | 10 | 201 | 0.0 | 4.8 | 0.00 | 0.00 | 0.00 | 94 | 1001.6 |
| 20260507114555 | 10 | 149 | 1.6 | 3.2 | 0.00 | 0.00 | 0.00 | 94 | 1001.7 |
| 20260507114053 | 10 | 189 | 0.0 | 0.0 | 0.00 | 0.00 | 0.00 | 94 | 1001.7 |
| 20260507113549 | 10 | 152 | 0.0 | 1.6 | 0.00 | 0.00 | 0.00 | 94 | 1001.7 |
| 20260507113047 | 10 | 149 | 0.0 | 1.6 | 0.00 | 0.00 | 0.00 | 94 | 1001.6 |
| 20260507112545 | 10 | 252 | 1.6 | 1.6 | 0.00 | 0.00 | 0.00 | 95 | 1001.7 |
| 20260507112041 | 10 | 260 | 1.6 | 4.8 | 0.00 | 0.00 | 0.00 | 95 | 1001.5 |
| 20260507111538 | 10 | 182 | 0.0 | 3.2 | 0.00 | 0.00 | 0.00 | 95 | 1001.2 |
| 20260507111035 | 10 | 144 | 0.0 | 1.6 | 0.00 | 0.00 | 0.00 | 94 | 1001.4 |
| 20260507110531 | 10 | 209 | 1.6 | 3.2 | 0.00 | 0.00 | 0.00 | 95 | 1001.6 |
| 20260507110028 | 10 | 261 | 1.6 | 3.2 | 0.00 | 0.00 | 0.00 | 94 | 1001.3 |
| 20260507105525 | 10 | 321 | 0.0 | 1.6 | 0.00 | 0.00 | 0.00 | 94 | 1001.4 |
| 20260507105021 | 10 | 222 | 0.0 | 1.6 | 0.00 | 0.00 | 0.00 | 95 | 1001.1 |
| 20260507104519 | 10 | 216 | 1.6 | 3.2 | 0.00 | 0.00 | 0.00 | 95 | 1001.2 |
| 20260507104015 | 10 | 158 | 0.0 | 1.6 | 0.00 | 0.00 | 0.00 | 95 | 1001.1 |
| 20260507103511 | 10 | 238 | 1.6 | 3.2 | 0.00 | 0.00 | 0.00 | 95 | 1001.1 |
| 20260507103007 | 10 | 209 | 1.6 | 3.2 | 0.00 | 0.00 | 0.00 | 96 | 1001.1 |
| 20260507102504 | 10 | 242 | 1.6 | 3.2 | 0.00 | 0.00 | 0.00 | 96 | 1001.1 |
| 20260507102000 | 10 | 183 | 3.2 | 3.2 | 0.00 | 0.00 | 0.00 | 96 | 1000.9 |
| 20260507101456 | 10 | 248 | 3.2 | 4.8 | 0.00 | 0.00 | 0.00 | 96 | 1000.7 |
| 20260507100953 | 10 | 217 | 0.0 | 0.0 | 0.00 | 0.00 | 0.00 | 96 | 1000.7 |
| 20260507100450 | 10 | 147 | 0.0 | 0.0 | 0.00 | 0.00 | 0.00 | 95 | 1000.5 |
| 20260507095948 | 10 | 161 | 1.6 | 1.6 | 0.00 | 0.00 | 0.00 | 96 | 1000.5 |
| 20260507095445 | 10 | 264 | 0.0 | 4.8 | 0.00 | 0.00 | 0.00 | 96 | 1000.9 |
| 20260507094942 | 10 | 195 | 3.2 | 6.4 | 0.00 | 0.00 | 0.00 | 96 | 1000.9 |
| 20260507094438 | 10 | 263 | 1.6 | 3.2 | 0.00 | 0.00 | 0.00 | 96 | 1000.9 |
| 20260507093935 | 10 | 117 | 3.2 | 3.2 | 0.00 | 0.00 | 0.00 | 96 | 1000.9 |
| 20260507093433 | 10 | 117 | 3.2 | 3.2 | 0.00 | 0.00 | 0.00 | 96 | 1000.9 |
| 20260507092931 | 10 | 176 | 1.6 | 3.2 | 0.00 | 0.00 | 0.00 | 96 | 1000.9 |
| 20260507092427 | 10 | 217 | 0.0 | 3.2 | 0.00 | 0.00 | 0.00 | 96 | 1000.7 |
| 20260507091924 | 10 | 252 | 1.6 | 3.2 | 0.00 | 0.00 | 0.00 | 96 | 1001.1 |
| 20260507091420 | 10 | 279 | 1.6 | 3.2 | 0.00 | 0.00 | 0.00 | 96 | 1000.9 |
| 20260507090916 | 10 | 264 | 4.8 | 4.8 | 0.00 | 0.00 | 0.00 | 96 | 1001.1 |
| 20260507090412 | 10 | 192 | 0.0 | 1.6 | 0.00 | 0.00 | 0.00 | 96 | 1001.1 |
| 20260507085909 | 10 | 141 | 1.6 | 1.6 | 0.00 | 0.00 | 0.00 | 96 | 1000.8 |
| 20260507085406 | 10 | 159 | 1.6 | 3.2 | 0.00 | 0.00 | 0.00 | 96 | 1000.8 |
| 20260507084904 | 10 | 152 | 3.2 | 4.8 | 0.00 | 0.00 | 0.00 | 96 | 1000.8 |
| 20260507084400 | 11 | 216 | 0.0 | 3.2 | 0.00 | 0.00 | 0.00 | 96 | 1000.7 |
| 20260507083857 | 11 | 240 | 1.6 | 3.2 | 0.00 | 0.00 | 0.00 | 96 | 1000.6 |
| 20260507083353 | 11 | 228 | 0.0 | 1.6 | 0.00 | 0.00 | 0.00 | 95 | 1001.2 |